EA1IDU Weather Reports


Display with metric or nautical units.
time (UTC)temp
F
wind
direction
speed
MPH
gust
MPH
rain 1hr
in
rain 24hr
in
rain mn
in
humidity
%
barometer
mb
20260507044048 44 35 7.0 13.0 0.00 0.00 0.00 94 1012.5
20260507043043 44 36 8.0 13.0 0.00 0.00 0.00 94 1012.7
20260507042038 44 26 7.0 14.0 0.00 0.00 0.00 94 1012.5
20260507041033 44 41 6.0 11.0 0.00 0.00 0.00 94 1012.6
20260507040028 44 8 5.0 11.0 0.00 0.00 0.00 94 1012.6
20260507035024 44 12 5.0 11.0 0.00 0.00 0.00 94 1012.6
20260507034018 44 24 3.0 7.0 0.00 0.00 0.00 94 1012.7
20260507033113 44 354 4.0 7.0 0.00 0.00 0.00 94 1012.7
20260507032108 44 344 3.0 6.0 0.00 0.00 0.00 94 1012.9
20260507031124 44 43 3.0 4.0 0.00 0.00 0.00 94 1012.8
20260507030058 44 33 4.0 7.0 0.00 0.00 0.00 94 1012.7
20260507025053 44 45 5.0 9.0 0.00 0.00 0.00 94 1012.8
20260507024048 44 34 4.0 8.0 0.00 0.00 0.00 94 1012.8
20260507023103 44 43 5.0 9.0 0.00 0.00 0.00 94 1013.0
20260507022119 44 18 4.0 11.0 0.00 0.00 0.00 93 1012.9
20260507021033 44 23 7.0 11.0 0.00 0.00 0.00 93 1012.9
20260507020028 43 26 6.0 11.0 0.00 0.00 0.00 93 1012.9
20260507015024 43 42 3.0 8.0 0.00 0.00 0.00 93 1013.1
20260507014038 43 19 3.0 6.0 0.00 0.00 0.00 93 1013.1
20260507013114 43 30 3.0 6.0 0.00 0.00 0.00 92 1013.1
20260507012209 43 19 3.0 7.0 0.00 0.00 0.00 92 1013.2
20260507010059 43 42 2.0 7.0 0.00 0.00 0.00 92 1013.4
20260507005054 43 33 4.0 6.0 0.00 0.00 0.00 92 1013.3
20260507004049 44 42 5.0 8.0 0.00 0.00 0.00 91 1013.4
20260507003044 44 34 4.0 7.0 0.00 0.00 0.00 91 1013.6
20260507002039 44 41 6.0 8.0 0.00 0.00 0.00 91 1013.7
20260507001034 44 26 6.0 11.0 0.00 0.00 0.00 90 1013.7
20260507000029 44 18 5.0 8.0 0.00 0.00 0.00 89 1013.6
20260506235024 44 24 5.0 8.0 0.00 0.00 0.00 89 1013.8
20260506234039 44 15 6.0 9.0 0.00 0.00 0.00 89 1013.7
20260506233116 44 355 5.0 9.0 0.00 0.00 0.00 89 1013.9
20260506232110 44 36 5.0 9.0 0.00 0.00 0.00 89 1013.8
20260506231104 45 44 5.0 11.0 0.00 0.00 0.00 88 1013.7
20260506230059 45 32 5.0 11.0 0.00 0.00 0.00 88 1013.7
20260506225054 45 23 7.0 13.0 0.00 0.00 0.00 87 1013.8
20260506224049 45 41 6.0 13.0 0.00 0.00 0.00 87 1013.8
20260506223046 45 25 6.0 9.0 0.00 0.00 0.00 87 1013.9
20260506222040 45 5 7.0 14.0 0.00 0.00 0.00 87 1013.9
20260506221034 46 28 7.0 15.0 0.00 0.00 0.00 86 1013.9
20260506220110 46 31 9.0 14.0 0.00 0.00 0.00 86 1013.9
20260506215025 46 42 10.0 20.0 0.00 0.00 0.00 86 1014.0
20260506214020 46 45 12.0 21.0 0.00 0.00 0.00 86 1013.9
20260506213116 46 42 13.0 18.0 0.00 0.00 0.00 86 1014.0
20260506212110 46 29 12.0 20.0 0.00 0.00 0.00 86 1014.0
20260506211106 47 41 14.0 20.0 0.00 0.00 0.00 85 1014.0
20260506210100 47 45 9.0 14.0 0.00 0.00 0.00 84 1014.0
20260506205055 47 38 10.0 17.0 0.00 0.00 0.00 84 1014.0
20260506204050 48 44 10.0 15.0 0.00 0.00 0.00 83 1014.0
20260506203045 48 42 10.0 16.0 0.00 0.00 0.00 83 1013.9
20260506202040 48 45 10.0 18.0 0.00 0.00 0.00 82 1013.8
20260506201035 49 42 11.0 17.0 0.00 0.00 0.00 82 1013.7
20260506200030 49 35 9.0 14.0 0.00 0.00 0.00 81 1013.6
20260506195025 50 34 10.0 18.0 0.00 0.00 0.00 80 1013.6
20260506194021 50 39 7.0 13.0 0.00 0.00 0.00 77 1013.4
20260506193016 51 25 9.0 16.0 0.00 0.00 0.00 75 1013.4
20260506192111 52 45 9.0 16.0 0.00 0.00 0.00 73 1013.2
20260506191106 52 21 6.0 14.0 0.00 0.00 0.00 71 1013.2
20260506185116 54 27 6.0 13.0 0.00 0.00 0.00 67 1013.0
20260506184051 54 45 7.0 16.0 0.00 0.00 0.00 66 1013.1
20260506183046 54 29 10.0 16.0 0.00 0.00 0.00 65 1013.0
20260506182041 54 49 10.0 16.0 0.00 0.00 0.00 64 1012.9
20260506181057 55 37 7.0 14.0 0.00 0.00 0.00 64 1013.0
20260506180031 55 53 8.0 14.0 0.00 0.00 0.00 63 1013.0
20260506175026 57 31 3.0 6.0 0.00 0.00 0.00 55 1012.8
20260506174022 57 18 2.0 7.0 0.00 0.00 0.00 54 1012.9
20260506173036 57 39 2.0 6.0 0.00 0.00 0.00 54 1013.0
20260506172111 57 35 3.0 6.0 0.00 0.00 0.00 54 1012.9
20260506171106 56 347 2.0 6.0 0.00 0.00 0.00 54 1013.0
20260506165056 56 29 4.0 6.0 0.00 0.00 0.00 57 1013.0
20260506164051 56 16 3.0 9.0 0.00 0.00 0.00 55 1012.9
20260506163127 56 45 6.0 11.0 0.00 0.01 0.00 56 1013.0
20260506162042 57 305 5.0 11.0 0.00 0.02 0.00 53 1012.8
20260506161037 57 339 6.0 13.0 0.00 0.02 0.00 51 1013.0
20260506160032 57 332 4.0 8.0 0.00 0.02 0.00 48 1013.0
20260506155047 59 337 1.0 4.0 0.00 0.02 0.00 43 1012.9
20260506154043 57 0 0.0 2.0 0.00 0.02 0.00 44 1013.0
20260506153037 56 321 2.0 4.0 0.00 0.02 0.00 47 1013.3
20260506152112 56 331 4.0 7.0 0.00 0.05 0.00 49 1013.3
20260506151107 57 27 3.0 9.0 0.00 0.05 0.00 45 1013.3
20260506150145 57 335 2.0 4.0 0.00 0.07 0.00 43 1013.4
20260506145057 58 18 4.0 8.0 0.00 0.07 0.00 45 1013.5
20260506144052 59 11 1.0 4.0 0.00 0.07 0.00 43 1013.7
20260506143047 58 339 2.0 8.0 0.00 0.07 0.00 45 1013.6
20260506142044 58 287 6.0 9.0 0.00 0.07 0.00 46 1013.8
20260506141037 59 266 2.0 7.0 0.00 0.07 0.00 44 1013.9
20260506140032 57 260 3.0 6.0 0.00 0.07 0.00 47 1014.0
20260506135027 57 260 3.0 7.0 0.00 0.07 0.00 48 1014.2
20260506134043 56 291 4.0 8.0 0.00 0.07 0.00 51 1014.3
20260506133019 57 18 3.0 11.0 0.00 0.07 0.00 50 1014.4
20260506132113 57 294 1.0 4.0 0.00 0.07 0.00 50 1014.4
20260506131108 56 302 3.0 4.0 0.00 0.07 0.00 53 1014.3
20260506125058 54 315 5.0 9.0 0.00 0.07 0.00 58 1014.4
20260506124053 55 17 6.0 11.0 0.00 0.07 0.00 56 1014.5
20260506123048 57 292 1.0 4.0 0.00 0.07 0.00 47 1014.5
20260506122043 56 229 2.0 4.0 0.00 0.07 0.00 49 1014.5
20260506121038 54 0.0 2.0 0.00 0.07 0.00 51 1014.6
20260506120033 53 272 2.0 4.0 0.00 0.07 0.00 54 1014.8
20260506115048 53 317 4.0 6.0 0.00 0.07 0.00 56 1014.9
20260506114023 54 295 2.0 6.0 0.00 0.07 0.00 56 1014.9
20260506113019 55 244 1.0 4.0 0.00 0.07 0.00 54 1014.9
20260506112114 53 211 2.0 4.0 0.00 0.07 0.00 56 1015.0
20260506111108 53 112 2.0 4.0 0.00 0.07 0.00 58 1014.9
20260506110103 52 45 2.0 4.0 0.00 0.07 0.00 60 1014.9
20260506105058 51 339 2.0 4.0 0.00 0.07 0.00 62 1014.8
20260506104135 53 328 2.0 6.0 0.00 0.07 0.00 60 1015.0
20260506103129 53 196 2.0 4.0 0.00 0.07 0.00 60 1015.0
20260506102104 52 199 4.0 8.0 0.00 0.07 0.00 63 1015.2
20260506101059 51 211 2.0 4.0 0.00 0.07 0.00 66 1015.1
20260506100053 52 199 1.0 4.0 0.00 0.07 0.00 63 1015.3
20260506095028 52 91 1.0 4.0 0.00 0.07 0.00 61 1015.2
20260506094023 49 57 0.0 2.0 0.00 0.07 0.00 68 1015.3
20260506093018 49 303 2.0 4.0 0.00 0.07 0.00 70 1015.2
20260506092113 49 265 4.0 7.0 0.00 0.07 0.00 70 1015.1
20260506091108 48 299 4.0 7.0 0.00 0.07 0.00 72 1015.2
20260506085119 48 224 2.0 4.0 0.00 0.07 0.00 75 1015.2
20260506084053 47 253 3.0 7.0 0.00 0.07 0.00 77 1015.0
20260506083048 48 267 2.0 4.0 0.00 0.07 0.00 76 1015.2
20260506082043 48 207 1.0 2.0 0.00 0.07 0.00 77 1015.2
20260506081059 48 0.0 2.0 0.00 0.07 0.00 76 1015.2
20260506073019 47 315 0.0 2.0 0.00 0.07 0.00 78 1015.2
20260506072114 47 0.0 0.0 0.00 0.07 0.00 80 1015.2
20260506071109 44 0.0 2.0 0.00 0.07 0.00 84 1015.0
20260506070103 43 0.0 0.0 0.00 0.07 0.00 85 1015.1
20260506062043 41 27 1.0 2.0 0.00 0.07 0.00 90 1014.8
20260506061038 40 45 1.0 2.0 0.00 0.07 0.00 90 1014.8
20260506051108 40 0.0 0.0 0.00 0.07 0.00 91 1014.3
20260506050103 40 0.0 2.0 0.00 0.07 0.00 91 1014.3
20260506045118 40 0.0 0.0 0.00 0.07 0.00 91 1014.3